Weather History for Harbor Springs, MI

Change the Weather History Date:

Sunday, December 1, 2013

  Actual Average (KPLN) Record (KPLN)
Temperature  
Mean Temperature 30 °F -  
Max Temperature 33 °F 33 °F 58 °F (1970)
Min Temperature 28 °F 20 °F -12 °F (1964)
Degree Days  
Heating Degree Days 34    
Moisture  
Dew Point 28 °F    
Average Humidity 86    
Maximum Humidity 95    
Minimum Humidity 77    
Precipitation  
Precipitation 0.00 in - - ()
Sea Level Pressure  
Sea Level Pressure 30.05 in    
Wind  
Wind Speed 3 mph (ENE)    
Max Wind Speed 12 mph    
Max Gust Speed -    
Visibility 8 miles    
Events      
Averages and records for this station are not official NWS values.
T = Trace of Precipitation, MM = Missing Value Source: NWS Daily Summary

Daily Weather History Graph

Daily Weather History Graph

Search for Another Location

Airport:

Trip Planner

Search our weather history database for the weather conditions in past years. The results will help you decide how hot, cold, wet, or windy it might be!

Date:

Astronomy

Dec. 01, 2013 Rise Set
Actual Time 7:59 AM EST 4:58 PM EST
Civil Twilight 7:25 AM EST 5:31 PM EST
Nautical Twilight 6:48 AM EST 6:08 PM EST
Astronomical Twilight 6:13 AM EST 6:44 PM EST
Moon 6:12 AM EST (12/1) 4:10 PM EST (12/1)
Length of Visible Light 10h 05m
Length of Day
8h 58m
Waning Crescent, 2% of the Moon is Illuminated
Dec 1
Waning Crescent
Dec 2
New
Dec 9
First Quarter
Dec 17
Full
Dec 25
Last Quarter

Hourly Weather History & Observations

Time (EST) Temp. Windchill Dew Point Humidity Pressure Visibility Wind Dir Wind Speed Gust Speed Precip Events Conditions
12:15 AM 33.3 °F - 31.6 °F 94% 30.04 in 4.0 mi Calm Calm - N/A   Overcast
12:35 AM 33.3 °F - 31.8 °F 94% 30.03 in 4.0 mi Calm Calm - N/A   Overcast
12:54 AM 33.3 °F - 31.8 °F 94% 30.04 in 4.0 mi Calm Calm - N/A   Overcast
1:15 AM 33.3 °F - 31.6 °F 94% 30.03 in 5.0 mi Calm Calm - N/A   Overcast
1:35 AM 33.3 °F - 31.5 °F 93% 30.03 in 5.0 mi Calm Calm - N/A   Overcast
1:55 AM 33.3 °F 28.9 °F 31.1 °F 92% 30.03 in 5.0 mi North 4.6 mph - N/A   Overcast
2:15 AM 33.3 °F - 31.6 °F 94% 30.03 in 4.0 mi Calm Calm - N/A   Overcast
2:35 AM 33.3 °F - 31.8 °F 94% 30.04 in 3.0 mi Calm Calm - N/A   Overcast
2:55 AM 33.3 °F 28.9 °F 32.0 °F 95% 30.04 in 2.5 mi North 4.6 mph - N/A   Overcast
3:15 AM 33.3 °F 30.2 °F 32.0 °F 95% 30.04 in 2.5 mi NNW 3.5 mph - N/A   Overcast
3:34 AM 33.3 °F 30.2 °F 32.0 °F 95% 30.04 in 2.0 mi NNW 3.5 mph - N/A   Overcast
3:55 AM 33.3 °F 28.9 °F 32.0 °F 95% 30.04 in 2.5 mi North 4.6 mph - N/A   Overcast
4:15 AM 33.3 °F 30.2 °F 32.0 °F 95% 30.04 in 3.0 mi North 3.5 mph - N/A   Overcast
4:34 AM 33.3 °F - 32.0 °F 95% 30.04 in 3.0 mi Calm Calm - N/A   Overcast
4:55 AM 33.3 °F - 31.8 °F 94% 30.05 in 4.0 mi Calm Calm - N/A   Overcast
5:15 AM 33.3 °F - 31.5 °F 93% 30.05 in 4.0 mi Calm Calm - N/A   Overcast
5:34 AM 33.3 °F - 31.5 °F 93% 30.05 in 4.0 mi Calm Calm - N/A   Overcast
5:55 AM 33.3 °F - 31.3 °F 92% 30.05 in 4.0 mi Calm Calm - N/A   Overcast
6:15 AM 33.3 °F - 31.6 °F 94% 30.06 in 3.0 mi Calm Calm - N/A   Overcast
6:35 AM 33.3 °F - 32.0 °F 95% 30.07 in 4.0 mi Calm Calm - N/A   Overcast
6:55 AM 33.3 °F - 31.8 °F 94% 30.07 in 4.0 mi Calm Calm - N/A   Overcast
7:15 AM 33.3 °F - 31.1 °F 92% 30.07 in 5.0 mi Calm Calm - N/A   Overcast
7:35 AM 33.3 °F - 30.9 °F 91% 30.07 in 7.0 mi Calm Calm - N/A   Overcast
7:55 AM 33.3 °F 30.2 °F 30.7 °F 90% 30.07 in 7.0 mi ENE 3.5 mph - N/A   Overcast
8:15 AM 33.3 °F 30.2 °F 30.6 °F 90% 30.07 in 7.0 mi ENE 3.5 mph - N/A   Overcast
8:35 AM 33.3 °F 30.2 °F 30.4 °F 89% 30.08 in 7.0 mi ENE 3.5 mph - N/A   Overcast
8:55 AM 33.3 °F 30.2 °F 30.2 °F 89% 30.09 in 7.0 mi ENE 3.5 mph - N/A   Overcast
9:15 AM 33.3 °F 30.2 °F 30.2 °F 89% 30.09 in 10.0 mi ENE 3.5 mph - N/A   Overcast
9:34 AM 33.3 °F 28.9 °F 30.2 °F 89% 30.09 in 10.0 mi ENE 4.6 mph - N/A   Overcast
9:55 AM 33.3 °F 28.9 °F 30.2 °F 89% 30.09 in 10.0 mi ENE 4.6 mph - N/A   Overcast
10:15 AM 33.3 °F 27.9 °F 30.0 °F 88% 30.09 in 10.0 mi ENE 5.8 mph - N/A   Overcast
10:35 AM 33.3 °F 27.1 °F 29.7 °F 87% 30.10 in 10.0 mi ENE 6.9 mph - N/A   Overcast
10:55 AM 33.3 °F 27.1 °F 29.3 °F 85% 30.11 in 10.0 mi East 6.9 mph - N/A   Overcast
11:15 AM 33.3 °F 27.1 °F 28.9 °F 84% 30.10 in 10.0 mi ENE 6.9 mph - N/A   Overcast
11:35 AM 33.3 °F 25.7 °F 28.9 °F 84% 30.09 in 10.0 mi ENE 9.2 mph - N/A   Overcast
11:55 AM 33.3 °F 25.1 °F 28.4 °F 82% 30.09 in 10.0 mi East 10.4 mph - N/A   Overcast
12:15 PM 33.3 °F 25.1 °F 28.0 °F 81% 30.08 in 10.0 mi East 10.4 mph - N/A   Overcast
12:35 PM 33.3 °F 25.7 °F 28.0 °F 81% 30.07 in 10.0 mi East 9.2 mph - N/A   Overcast
12:55 PM 33.3 °F 24.6 °F 28.0 °F 81% 30.07 in 10.0 mi ENE 11.5 mph - N/A   Overcast
1:15 PM 33.3 °F 24.6 °F 27.1 °F 78% 30.06 in 10.0 mi ENE 11.5 mph - N/A   Overcast
1:35 PM 33.3 °F 27.1 °F 26.8 °F 77% 30.06 in 10.0 mi ENE 6.9 mph - N/A   Overcast
1:55 PM 33.3 °F 27.1 °F 26.8 °F 77% 30.06 in 10.0 mi East 6.9 mph - N/A   Overcast
2:15 PM 33.3 °F 28.9 °F 26.8 °F 77% 30.05 in 10.0 mi NE 4.6 mph - N/A   Overcast
2:35 PM 33.3 °F 27.1 °F 27.1 °F 78% 30.05 in 10.0 mi ENE 6.9 mph - N/A   Overcast
2:55 PM 33.3 °F 27.1 °F 27.0 °F 78% 30.05 in 10.0 mi NE 6.9 mph - N/A   Overcast
3:14 PM 33.3 °F 27.1 °F 27.0 °F 78% 30.06 in 10.0 mi NE 6.9 mph - N/A   Overcast
3:35 PM 33.3 °F 27.9 °F 27.3 °F 79% 30.06 in 10.0 mi NE 5.8 mph - N/A   Overcast
3:55 PM 33.3 °F 28.9 °F 27.5 °F 79% 30.06 in 10.0 mi ENE 4.6 mph - N/A   Overcast
4:14 PM 33.3 °F 27.9 °F 27.5 °F 79% 30.06 in 10.0 mi ENE 5.8 mph - N/A   Overcast
4:35 PM 31.6 °F 25.1 °F 25.7 °F 79% 30.05 in 10.0 mi ENE 6.9 mph - N/A   Overcast
4:55 PM 31.6 °F 26.0 °F 25.7 °F 79% 30.06 in 10.0 mi NE 5.8 mph - N/A   Overcast
5:14 PM 31.5 °F 25.8 °F 26.1 °F 80% 30.05 in 10.0 mi ENE 5.8 mph - N/A   Overcast
5:35 PM 31.3 °F 25.6 °F 25.7 °F 80% 30.06 in 10.0 mi ENE 5.8 mph - N/A   Overcast
5:55 PM 31.1 °F 25.4 °F 25.7 °F 80% 30.06 in 10.0 mi ENE 5.8 mph - N/A   Overcast
6:14 PM 31.1 °F 23.1 °F 25.7 °F 80% 30.06 in 10.0 mi ENE 9.2 mph - N/A   Overcast
6:35 PM 30.9 °F 23.5 °F 25.9 °F 82% 30.05 in 10.0 mi ENE 8.1 mph - N/A   Overcast
6:55 PM 30.6 °F 23.1 °F 25.5 °F 82% 30.04 in 10.0 mi ENE 8.1 mph - N/A   Overcast
7:14 PM 30.2 °F 22.6 °F 25.0 °F 81% 30.04 in 10.0 mi ENE 8.1 mph - N/A   Overcast
7:35 PM 30.2 °F 21.9 °F 24.8 °F 80% 30.04 in 10.0 mi ENE 9.2 mph - N/A   Overcast
7:55 PM 30.2 °F 22.6 °F 24.8 °F 80% 30.04 in 10.0 mi East 8.1 mph - N/A   Overcast
8:15 PM 30.0 °F 23.2 °F 24.4 °F 80% 30.04 in 10.0 mi East 6.9 mph - N/A   Overcast
8:35 PM 30.2 °F 23.4 °F 24.6 °F 80% 30.04 in 10.0 mi East 6.9 mph - N/A   Overcast
8:55 PM 30.2 °F 23.4 °F 24.4 °F 79% 30.03 in 10.0 mi ENE 6.9 mph - N/A   Overcast
9:15 PM 30.0 °F 23.2 °F 24.6 °F 80% 30.03 in 10.0 mi East 6.9 mph - N/A   Overcast
9:35 PM 29.8 °F 23.9 °F 24.4 °F 80% 30.03 in 10.0 mi East 5.8 mph - N/A   Overcast
9:55 PM 29.8 °F 24.9 °F 24.4 °F 80% 30.03 in 10.0 mi East 4.6 mph - N/A   Overcast
10:15 PM 29.3 °F 23.2 °F 24.3 °F 81% 30.03 in 10.0 mi East 5.8 mph - N/A   Overcast
10:35 PM 29.3 °F 24.3 °F 23.9 °F 80% 30.03 in 10.0 mi East 4.6 mph - N/A   Overcast
10:55 PM 28.9 °F 20.4 °F 24.1 °F 82% 30.02 in 10.0 mi East 9.2 mph - N/A   Overcast
11:15 PM 29.1 °F 23.0 °F 23.9 °F 81% 30.02 in 10.0 mi ENE 5.8 mph - N/A   Overcast
11:35 PM 29.1 °F 23.0 °F 23.9 °F 81% 30.02 in 10.0 mi East 5.8 mph - N/A   Overcast
11:55 PM 28.9 °F 25.2 °F 23.9 °F 81% 30.01 in 10.0 mi East 3.5 mph - N/A   Overcast